• în Republica Moldova
  • Lista ţărilor
  • Pe 7 zile
  • Temperatura apei
  • Hartă satelitară
  • Meteo pe hartă
  • Widget-uri
  • user-avatar
    Intrare

    Meteo pe oră la Prutz

    Astăzi, 14 August, Marţi

    Timp Temperatura Precipitaţii Vânt Presiune Umiditate
    00:00 +12°C° 1,1 mm 1 m/s 633 mmHg 96%
    01:00 +12°C° 0 mm 2 m/s 633 mmHg 96%
    02:00 +12°C° 0,2 mm 2 m/s 633 mmHg 96%
    03:00 +11°C° 0,2 mm 1 m/s 633 mmHg 96%
    04:00 +11°C° 0,2 mm 1 m/s 633 mmHg 96%
    05:00 +12°C° 0,2 mm 1 m/s 633 mmHg 95%
    06:00 +12°C° 0,2 mm 1 m/s 633 mmHg 93%
    07:00 +12°C° 0,2 mm 1 m/s 634 mmHg 92%
    08:00 +13°C° 0,4 mm 1 m/s 634 mmHg 88%
    09:00 +14°C° 0,4 mm 1 m/s 634 mmHg 84%
    10:00 +15°C° 0,4 mm 1 m/s 635 mmHg 79%
    11:00 +16°C° 0,5 mm 2 m/s 635 mmHg 77%
    12:00 +16°C° 0,5 mm 2 m/s 635 mmHg 74%
    13:00 +17°C° 0,5 mm 2 m/s 636 mmHg 72%
    14:00 +17°C° 0,8 mm 2 m/s 636 mmHg 75%
    15:00 +16°C° 0,8 mm 2 m/s 635 mmHg 78%
    16:00 +16°C° 0,8 mm 2 m/s 635 mmHg 80%
    17:00 +15°C° 0,5 mm 2 m/s 635 mmHg 84%
    18:00 +14°C° 0,5 mm 2 m/s 635 mmHg 88%
    19:00 +13°C° 0,5 mm 2 m/s 635 mmHg 92%
    20:00 +13°C° 0 mm 2 m/s 636 mmHg 93%
    21:00 +12°C° 0 mm 2 m/s 636 mmHg 93%
    22:00 +10°C° 0 mm 2 m/s 636 mmHg 94%
    23:00 +10°C° 0 mm 2 m/s 636 mmHg 94%

    Mâine, 15 August, Miercuri

    Timp Temperatura Precipitaţii Vânt Presiune Umiditate
    00:00 +10°C° 0 mm 1 m/s 636 mmHg 94%
    01:00 +10°C° 0 mm 1 m/s 636 mmHg 94%
    02:00 +10°C° 0 mm 1 m/s 636 mmHg 94%
    03:00 +9°C° 0 mm 1 m/s 636 mmHg 95%
    04:00 +9°C° 0 mm 1 m/s 635 mmHg 95%
    05:00 +10°C° 0 mm 1 m/s 636 mmHg 92%
    06:00 +10°C° 0 mm 1 m/s 636 mmHg 90%
    07:00 +11°C° 0 mm 1 m/s 637 mmHg 88%
    08:00 +14°C° 0 mm 1 m/s 638 mmHg 78%
    09:00 +16°C° 0 mm 1 m/s 638 mmHg 68%
    10:00 +19°C° 0 mm 1 m/s 639 mmHg 57%
    11:00 +19°C° 0 mm 2 m/s 639 mmHg 55%
    12:00 +20°C° 0 mm 2 m/s 639 mmHg 52%
    13:00 +20°C° 0 mm 2 m/s 639 mmHg 49%
    14:00 +20°C° 0 mm 2 m/s 639 mmHg 52%
    15:00 +20°C° 0 mm 2 m/s 639 mmHg 54%
    16:00 +20°C° 0 mm 2 m/s 639 mmHg 57%
    17:00 +18°C° 0,1 mm 2 m/s 638 mmHg 66%
    18:00 +17°C° 0,1 mm 2 m/s 638 mmHg 75%
    19:00 +15°C° 0,1 mm 1 m/s 638 mmHg 84%
    20:00 +14°C° 0 mm 1 m/s 638 mmHg 88%
    21:00 +13°C° 0 mm 1 m/s 638 mmHg 91%
    22:00 +12°C° 0 mm 1 m/s 637 mmHg 95%
    23:00 +11°C° 0 mm 1 m/s 637 mmHg 95%

    Poimâine, 16 August, Joi

    Timp Temperatura Precipitaţii Vânt Presiune Umiditate
    00:00 +11°C° 0 mm 1 m/s 637 mmHg 95%
    01:00 +11°C° 0 mm 1 m/s 637 mmHg 94%
    02:00 +11°C° 0 mm 1 m/s 637 mmHg 94%
    03:00 +10°C° 0 mm 1 m/s 636 mmHg 93%
    04:00 +10°C° 0 mm 1 m/s 636 mmHg 93%
    05:00 +11°C° 0 mm 1 m/s 637 mmHg 89%
    06:00 +13°C° 0 mm 1 m/s 637 mmHg 85%
    07:00 +14°C° 0 mm 1 m/s 638 mmHg 81%
    08:00 +16°C° 0 mm 1 m/s 638 mmHg 71%
    09:00 +20°C° 0 mm 1 m/s 639 mmHg 61%
    10:00 +22°C° 0 mm 1 m/s 639 mmHg 51%
    11:00 +23°C° 0 mm 1 m/s 639 mmHg 49%
    12:00 +23°C° 0 mm 1 m/s 639 mmHg 46%
    13:00 +24°C° 0 mm 1 m/s 639 mmHg 44%
    14:00 +24°C° 0,1 mm 1 m/s 639 mmHg 47%
    15:00 +23°C° 0,1 mm 1 m/s 638 mmHg 50%
    16:00 +23°C° 0,1 mm 2 m/s 638 mmHg 53%
    17:00 +21°C° 0,2 mm 1 m/s 637 mmHg 63%
    18:00 +19°C° 0,2 mm 1 m/s 637 mmHg 73%
    19:00 +18°C° 0,2 mm 1 m/s 636 mmHg 82%
    20:00 +16°C° 0,2 mm 1 m/s 636 mmHg 86%
    21:00 +14°C° 0,2 mm 1 m/s 636 mmHg 89%
    22:00 +13°C° 0,2 mm 1 m/s 636 mmHg 92%
    23:00 +13°C° 0,1 mm 1 m/s 636 mmHg 92%

    17 August, Vineri

    Timp Temperatura Precipitaţii Vânt Presiune Umiditate
    00:00 +13°C° 0,1 mm 1 m/s 636 mmHg 92%
    01:00 +13°C° 0,1 mm 1 m/s 636 mmHg 91%
    02:00 +12°C° 0,1 mm 1 m/s 635 mmHg 92%
    03:00 +12°C° 0,1 mm 1 m/s 635 mmHg 92%
    04:00 +12°C° 0,1 mm 1 m/s 635 mmHg 92%
    05:00 +13°C° 0,1 mm 1 m/s 635 mmHg 89%
    06:00 +14°C° 0,1 mm 1 m/s 636 mmHg 86%
    07:00 +15°C° 0,1 mm 1 m/s 636 mmHg 83%
    08:00 +18°C° 0,3 mm 1 m/s 637 mmHg 77%
    09:00 +19°C° 0,3 mm 1 m/s 637 mmHg 71%
    10:00 +21°C° 0,3 mm 1 m/s 638 mmHg 65%
    11:00 +21°C° 1,2 mm 1 m/s 637 mmHg 67%
    12:00 +20°C° 1,2 mm 2 m/s 637 mmHg 69%
    13:00 +20°C° 1,2 mm 2 m/s 637 mmHg 71%
    14:00 +19°C° 1,6 mm 2 m/s 637 mmHg 75%
    15:00 +18°C° 1,6 mm 2 m/s 637 mmHg 80%
    16:00 +17°C° 1,6 mm 2 m/s 637 mmHg 85%
    17:00 +16°C° 2 mm 2 m/s 637 mmHg 88%
    18:00 +15°C° 2 mm 2 m/s 637 mmHg 92%
    19:00 +14°C° 2 mm 2 m/s 637 mmHg 95%
    20:00 +14°C° 1,3 mm 2 m/s 637 mmHg 96%
    21:00 +13°C° 1,3 mm 2 m/s 637 mmHg 96%
    22:00 +13°C° 1,3 mm 1 m/s 638 mmHg 97%
    23:00 +13°C° 0,4 mm 1 m/s 638 mmHg 97%

    18 August, Sâmbătă

    Timp Temperatura Precipitaţii Vânt Presiune Umiditate
    00:00 +12°C° 0,4 mm 1 m/s 638 mmHg 96%
    01:00 +12°C° 0,4 mm 1 m/s 638 mmHg 96%
    02:00 +12°C° 0,4 mm 1 m/s 638 mmHg 96%
    03:00 +12°C° 0,4 mm 1 m/s 638 mmHg 96%
    04:00 +12°C° 0,4 mm 1 m/s 638 mmHg 96%
    05:00 +12°C° 0,5 mm 1 m/s 638 mmHg 96%
    06:00 +12°C° 0,5 mm 1 m/s 638 mmHg 95%
    07:00 +12°C° 0,5 mm 1 m/s 638 mmHg 94%
    08:00 +13°C° 0,4 mm 1 m/s 639 mmHg 91%
    09:00 +14°C° 0,4 mm 1 m/s 639 mmHg 87%
    10:00 +15°C° 0,4 mm 1 m/s 639 mmHg 84%
    11:00 +16°C° 0,2 mm 1 m/s 639 mmHg 79%
    12:00 +18°C° 0,2 mm 1 m/s 639 mmHg 74%
    13:00 +19°C° 0,2 mm 1 m/s 640 mmHg 70%
    14:00 +18°C° 0,3 mm 2 m/s 639 mmHg 71%
    15:00 +18°C° 0,3 mm 2 m/s 639 mmHg 72%
    16:00 +18°C° 0,3 mm 2 m/s 639 mmHg 73%
    17:00 +17°C° 0,3 mm 2 m/s 639 mmHg 79%
    18:00 +15°C° 0,3 mm 2 m/s 639 mmHg 85%
    19:00 +14°C° 0,3 mm 1 m/s 639 mmHg 91%
    20:00 +14°C° 0,1 mm 1 m/s 639 mmHg 93%
    21:00 +13°C° 0,1 mm 1 m/s 639 mmHg 94%
    22:00 +13°C° 0,1 mm 1 m/s 639 mmHg 96%
    23:00 +12°C° 0 mm 1 m/s 639 mmHg 96%

    19 August, Duminică

    Timp Temperatura Precipitaţii Vânt Presiune Umiditate
    00:00 +12°C° 0 mm 1 m/s 639 mmHg 96%
    01:00 +12°C° 0 mm 1 m/s 639 mmHg 96%
    02:00 +11°C° 0 mm 1 m/s 639 mmHg 96%
    03:00 +11°C° 0 mm 1 m/s 638 mmHg 95%
    04:00 +10°C° 0 mm 1 m/s 638 mmHg 95%
    05:00 +11°C° 0 mm 1 m/s 639 mmHg 93%
    06:00 +12°C° 0 mm 1 m/s 639 mmHg 91%
    07:00 +12°C° 0 mm 0 m/s 639 mmHg 88%
    08:00 +15°C° 0 mm 1 m/s 640 mmHg 79%
    09:00 +18°C° 0 mm 1 m/s 641 mmHg 69%
    10:00 +20°C° 0 mm 1 m/s 641 mmHg 60%
    11:00 +21°C° 0 mm 1 m/s 641 mmHg 56%
    12:00 +22°C° 0 mm 1 m/s 641 mmHg 52%
    13:00 +23°C° 0 mm 2 m/s 642 mmHg 48%
    14:00 +21°C° 0 mm 2 m/s 641 mmHg 50%
    15:00 +21°C° 0 mm 2 m/s 641 mmHg 52%
    16:00 +21°C° 0 mm 2 m/s 641 mmHg 54%
    17:00 +19°C° 0 mm 2 m/s 640 mmHg 63%
    18:00 +17°C° 0 mm 2 m/s 640 mmHg 73%
    19:00 +16°C° 0 mm 1 m/s 640 mmHg 83%
    20:00 +14°C° 0 mm 1 m/s 639 mmHg 86%
    21:00 +13°C° 0 mm 1 m/s 639 mmHg 90%
    22:00 +12°C° 0 mm 1 m/s 639 mmHg 94%
    23:00 +12°C° 0 mm 1 m/s 639 mmHg 94%
    Arată mai mult